Content
SEND FEEDBACK

Daily
Averages
Monthly
Summary
United States of America

FREELAND, MICHIGAN


Home > North America > United States > Michigan
Elevation: 651 feet     Latitude: 43 31N     Longitude: 084 04W

WEATHER
 
SELECT A DAY
Number of Records: 200,701;   Date Range: 1/1/95 - 8/30/14
 
SHARE

PRINT THIS DATA

[ ← Previous Day ]
WEATHER ALMANAC - JANUARY 23, 2013
[ Next Day → ]
[ °C ]   °F
Weather ElementAverageHighLow
Temperature12.8 °F16 °F (3:53 pm)3.9 °F (1:53 am)
Dewpoint5.8 °F10.9 °F (8:53 pm)-2.9 °F (1:53 am)
Humidity73.7 %84 % (8:53 pm)58 % (12:38 pm)
Barometer30.14 in30.30 in (1:53 am)30.05 in (4:13 pm)
Wind Speed7.6 mph15 mph (10:37 am)
Wind Gust18.4 mph (12:17 pm)
Weather ElementAverage
Visibility5.3 mi
Wind DirectionS (185.2 °)

Weather ElementTotal
Precipitation---
Heating Degree Days55.1 (Base 65)
Averaged from 46 records on January 23, 2013
WEATHER CONDITIONS BREAKOUT
WIND DIRECTION BREAKOUT
WEATHER BY HOUR - JANUARY 23, 2013
[ °C ]   °F
Local TimeTemperatureDewpointHumidityBarometerVisibilityWind DirectionWind SpeedGust SpeedPrecipitationEventsConditions
1:53 AM3.9 °F-2.9 °F73 %30.30 in10.0 miWSW (240°)8.1 mphClear
2:53 AM5.0 °F-2.0 °F73 %30.30 in10.0 miWSW (240°)8.1 mphOvercast
3:53 AM5.0 °F-2.0 °F73 %30.29 in10.0 miWSW (250°)6.9 mphOvercast
4:53 AM3.9 °F-2.0 °F76 %30.29 in10.0 miWSW (240°)5.8 mphClear
5:53 AM3.9 °F-2.0 °F76 %30.27 in10.0 miSW (230°)8.1 mphClear
6:53 AM3.9 °F-2.0 °F76 %30.27 in10.0 miSSW (210°)5.8 mphClear
7:53 AM3.9 °F-2.9 °F73 %30.26 in10.0 miSW (220°)6.9 mphMostly Cloudy
8:53 AM6.1 °F-2.0 °F69 %30.25 in10.0 miSW (220°)8.1 mphOvercast
9:53 AM8.1 °F0.0 °F70 %30.25 in6.0 miSSW (210°)10.4 mphHaze
10:18 AM8.6 °F1.4 °F73 %30.19 in2.0 miSSW (210°)11.5 mphHaze
10:37 AM10.4 °F1.4 °F67 %30.19 in2.0 miSW (220°)15.0 mphHaze
10:53 AM10.9 °F3.0 °F70 %30.23 in3.0 miSSW (210°)11.5 mphHaze
11:25 AM12.2 °F3.2 °F67 %30.18 in10.0 miSW (230°)12.7 mphOvercast
11:53 AM12.9 °F1.9 °F62 %30.21 in10.0 miSSW (210°)12.7 mphOvercast
12:17 PM12.2 °F1.4 °F62 %30.15 in10.0 miSW (220°)13.8 mph18.4 mphOvercast
12:38 PM15.8 °F3.2 °F58 %30.13 in10.0 miSW (220°)12.7 mphMostly Cloudy
12:51 PM15.8 °F3.2 °F58 %30.13 in10.0 miSW (230°)15.0 mphMostly Cloudy
12:53 PM15.1 °F3.0 °F59 %30.17 in10.0 miSW (230°)11.5 mphMostly Cloudy
1:29 PM15.8 °F5.0 °F62 %30.10 in3.0 miSW (230°)11.5 mphHaze
1:53 PM15.1 °F6.1 °F68 %30.14 in2.0 miSW (230°)12.7 mph0.00 inSnowLight Snow
2:10 PM15.8 °F6.8 °F68 %30.08 in1.2 miWSW (250°)10.4 mph0.00 inSnowLight Snow
2:53 PM15.1 °F9.0 °F77 %30.12 in1.0 miWSW (240°)8.1 mph0.00 inSnowLight Snow
3:12 PM15.8 °F10.4 °F79 %30.07 in0.8 miWSW (250°)8.1 mph0.00 inSnowLight Snow
3:30 PM15.8 °F8.6 °F73 %30.06 in1.2 miWSW (250°)9.2 mph0.00 inSnowLight Snow
3:53 PM16.0 °F10.0 °F77 %30.11 in0.8 miWest (260°)9.2 mph0.00 inSnowLight Snow
4:01 PM15.8 °F10.4 °F79 %30.06 in0.8 miWSW (240°)6.9 mph0.00 inSnowLight Snow
4:13 PM15.8 °F10.4 °F79 %30.05 in1.0 miWSW (240°)9.2 mph0.00 inSnowLight Snow
4:28 PM15.8 °F10.4 °F79 %30.05 in2.0 miWSW (250°)5.8 mph0.00 inSnowLight Snow
4:30 PM15.8 °F10.4 °F79 %30.05 in2.5 miWSW (240°)5.8 mph0.00 inHaze
4:35 PM15.8 °F10.4 °F79 %30.05 in4.0 miWSW (250°)8.1 mph0.00 inHaze
4:53 PM16.0 °F7.0 °F68 %30.10 in9.0 miWest (260°)6.9 mph0.00 inOvercast
5:53 PM16.0 °F9.0 °F74 %30.10 in2.5 miWest (280°)4.6 mph0.00 inSnowLight Snow
6:24 PM15.8 °F8.6 °F73 %30.06 in4.0 miWest (270°)3.5 mph0.00 inSnowLight Snow
6:53 PM15.1 °F10.0 °F80 %30.11 in2.5 miCalm0.00 inSnowLight Snow
7:18 PM15.8 °F10.4 °F79 %30.06 in6.0 miCalm0.00 inSnowLight Snow
7:53 PM16.0 °F10.0 °F77 %30.11 in3.0 miCalm0.00 inSnowLight Snow
8:23 PM15.8 °F10.4 °F79 %30.06 in5.0 miCalm0.00 inSnowLight Snow
8:41 PM15.8 °F10.4 °F79 %30.07 in4.0 miCalm0.00 inHaze
8:53 PM15.1 °F10.9 °F84 %30.12 in5.0 miNNE (30°)3.5 mph0.00 inSnowLight Snow
9:34 PM15.8 °F10.4 °F79 %30.09 in2.0 miNNE (20°)8.1 mph0.00 inSnowLight Snow
9:41 PM15.8 °F10.4 °F79 %30.09 in1.2 miNNE (20°)6.9 mph0.00 inSnowLight Snow
9:53 PM15.1 °F10.0 °F80 %30.14 in1.8 miNorth (10°)6.9 mph0.00 inSnowLight Snow
10:01 PM15.8 °F10.4 °F79 %30.10 in2.0 miNorth (10°)5.8 mph0.00 inSnowLight Snow
10:05 PM15.8 °F10.4 °F79 %30.10 in3.0 miNorth (10°)5.8 mph0.00 inSnowLight Snow
10:53 PM12.0 °F8.1 °F84 %30.15 in10.0 miNNW (340°)4.6 mph0.00 inOvercast
11:53 PM10.9 °F7.0 °F84 %30.17 in10.0 miWNW (300°)3.5 mphMostly Cloudy
Hourly data recorded from KMBS, located miles away from Freeland, Michigan







STORIES FROM OUR PARTNERS